• în România
  • Lista ţărilor
  • Pe 7 zile
  • Temperatura apei
  • Hartă satelitară
  • Meteo pe hartă
  • Widget-uri
  • user-avatar
    Intrare

    Meteo pe oră la Natitingou

    Astăzi, 21 Octombrie, Sâmbătă

    Timp Temperatura Precipitaţii Vânt Presiune Umiditate
    00:00 +26°C° 0 mm 1 m/s 718 mmHg 48%
    01:00 +26°C° 0 mm 1 m/s 718 mmHg 50%
    02:00 +25°C° 0 mm 1 m/s 718 mmHg 52%
    03:00 +25°C° 0 mm 1 m/s 717 mmHg 54%
    04:00 +24°C° 0 mm 1 m/s 717 mmHg 57%
    05:00 +24°C° 0 mm 1 m/s 718 mmHg 60%
    06:00 +24°C° 0 mm 1 m/s 718 mmHg 63%
    07:00 +27°C° 0 mm 1 m/s 719 mmHg 56%
    08:00 +29°C° 0 mm 1 m/s 719 mmHg 50%
    09:00 +32°C° 0 mm 1 m/s 720 mmHg 44%
    10:00 +35°C° 0 mm 1 m/s 719 mmHg 37%
    11:00 +37°C° 0 mm 1 m/s 719 mmHg 30%
    12:00 +40°C° 0 mm 1 m/s 719 mmHg 23%
    13:00 +40°C° 0 mm 1 m/s 718 mmHg 21%
    14:00 +39°C° 0 mm 1 m/s 717 mmHg 20%
    15:00 +39°C° 0 mm 1 m/s 716 mmHg 19%
    16:00 +36°C° 0 mm 1 m/s 716 mmHg 22%
    17:00 +33°C° 0 mm 1 m/s 716 mmHg 25%
    18:00 +29°C° 0 mm 0 m/s 716 mmHg 28%
    19:00 +30°C° 0 mm 1 m/s 717 mmHg 30%
    20:00 +29°C° 0 mm 1 m/s 717 mmHg 32%
    21:00 +29°C° 0 mm 1 m/s 718 mmHg 34%
    22:00 +28°C° 0 mm 1 m/s 718 mmHg 39%
    23:00 +28°C° 0 mm 1 m/s 718 mmHg 43%

    Mâine, 22 Octombrie, Duminică

    Timp Temperatura Precipitaţii Vânt Presiune Umiditate
    00:00 +27°C° 0 mm 1 m/s 718 mmHg 48%
    01:00 +26°C° 0 mm 1 m/s 718 mmHg 52%
    02:00 +26°C° 0 mm 1 m/s 718 mmHg 56%
    03:00 +25°C° 0 mm 1 m/s 717 mmHg 60%
    04:00 +25°C° 0 mm 1 m/s 717 mmHg 64%
    05:00 +25°C° 0 mm 1 m/s 718 mmHg 67%
    06:00 +25°C° 0 mm 2 m/s 718 mmHg 71%
    07:00 +26°C° 0 mm 2 m/s 718 mmHg 68%
    08:00 +28°C° 0 mm 2 m/s 719 mmHg 65%
    09:00 +30°C° 0 mm 3 m/s 719 mmHg 63%
    10:00 +31°C° 0 mm 2 m/s 719 mmHg 55%
    11:00 +34°C° 0 mm 2 m/s 718 mmHg 48%
    12:00 +36°C° 0 mm 2 m/s 718 mmHg 41%
    13:00 +36°C° 0 mm 1 m/s 717 mmHg 37%
    14:00 +37°C° 0 mm 1 m/s 717 mmHg 33%
    15:00 +36°C° 0 mm 0 m/s 716 mmHg 29%
    16:00 +36°C° 0 mm 1 m/s 716 mmHg 32%
    17:00 +34°C° 0 mm 1 m/s 716 mmHg 36%
    18:00 +32°C° 0 mm 1 m/s 716 mmHg 39%
    19:00 +31°C° 0 mm 1 m/s 717 mmHg 42%
    20:00 +30°C° 0 mm 1 m/s 717 mmHg 45%
    21:00 +29°C° 0 mm 1 m/s 718 mmHg 47%
    22:00 +28°C° 0 mm 1 m/s 718 mmHg 49%
    23:00 +28°C° 0 mm 2 m/s 718 mmHg 51%

    Poimâine, 23 Octombrie, Luni

    Timp Temperatura Precipitaţii Vânt Presiune Umiditate
    00:00 +27°C° 0 mm 2 m/s 717 mmHg 53%
    01:00 +27°C° 0 mm 2 m/s 717 mmHg 60%
    02:00 +26°C° 0 mm 2 m/s 717 mmHg 66%
    03:00 +25°C° 0 mm 2 m/s 716 mmHg 73%
    04:00 +25°C° 0 mm 2 m/s 716 mmHg 78%
    05:00 +24°C° 0 mm 2 m/s 717 mmHg 83%
    06:00 +24°C° 0 mm 2 m/s 717 mmHg 88%
    07:00 +26°C° 0 mm 2 m/s 717 mmHg 80%
    08:00 +28°C° 0 mm 2 m/s 718 mmHg 72%
    09:00 +30°C° 0 mm 3 m/s 719 mmHg 64%
    10:00 +33°C° 0 mm 3 m/s 718 mmHg 54%
    11:00 +35°C° 0 mm 2 m/s 718 mmHg 45%
    12:00 +37°C° 0 mm 2 m/s 717 mmHg 35%
    13:00 +37°C° 0 mm 1 m/s 717 mmHg 31%
    14:00 +39°C° 0 mm 1 m/s 716 mmHg 28%
    15:00 +37°C° 0 mm 0 m/s 715 mmHg 25%
    16:00 +34°C° 0 mm 0 m/s 715 mmHg 28%
    17:00 +32°C° 0 mm 0 m/s 715 mmHg 31%
    18:00 +32°C° 0 mm 1 m/s 715 mmHg 34%
    19:00 +31°C° 0 mm 1 m/s 716 mmHg 36%
    20:00 +30°C° 0 mm 1 m/s 716 mmHg 38%
    21:00 +29°C° 0 mm 1 m/s 717 mmHg 40%
    22:00 +29°C° 0 mm 1 m/s 717 mmHg 43%
    23:00 +28°C° 0 mm 2 m/s 716 mmHg 46%

    24 Octombrie, Marţi

    Timp Temperatura Precipitaţii Vânt Presiune Umiditate
    00:00 +28°C° 0 mm 2 m/s 716 mmHg 50%
    01:00 +27°C° 0 mm 2 m/s 716 mmHg 55%
    02:00 +27°C° 0 mm 2 m/s 716 mmHg 60%
    03:00 +26°C° 0 mm 1 m/s 716 mmHg 65%
    04:00 +26°C° 0 mm 2 m/s 716 mmHg 69%
    05:00 +25°C° 0 mm 2 m/s 716 mmHg 73%
    06:00 +25°C° 0 mm 2 m/s 717 mmHg 77%
    07:00 +27°C° 0 mm 2 m/s 717 mmHg 71%
    08:00 +29°C° 0 mm 2 m/s 718 mmHg 64%
    09:00 +31°C° 0 mm 3 m/s 718 mmHg 57%
    10:00 +34°C° 0 mm 2 m/s 718 mmHg 50%
    11:00 +36°C° 0 mm 2 m/s 717 mmHg 42%
    12:00 +37°C° 0 mm 1 m/s 716 mmHg 34%
    13:00 +39°C° 0 mm 1 m/s 716 mmHg 31%
    14:00 +40°C° 0 mm 1 m/s 715 mmHg 29%
    15:00 +37°C° 0 mm 0 m/s 715 mmHg 26%
    16:00 +35°C° 0 mm 0 m/s 715 mmHg 29%
    17:00 +33°C° 0 mm 0 m/s 715 mmHg 32%
    18:00 +33°C° 0 mm 1 m/s 715 mmHg 35%
    19:00 +32°C° 0 mm 1 m/s 716 mmHg 37%
    20:00 +32°C° 0 mm 1 m/s 716 mmHg 38%
    21:00 +31°C° 0 mm 1 m/s 717 mmHg 40%
    22:00 +31°C° 0 mm 1 m/s 716 mmHg 43%
    23:00 +30°C° 0 mm 2 m/s 716 mmHg 46%

    25 Octombrie, Miercuri

    Timp Temperatura Precipitaţii Vânt Presiune Umiditate
    00:00 +30°C° 0 mm 2 m/s 716 mmHg 50%
    01:00 +29°C° 0 mm 2 m/s 716 mmHg 55%
    02:00 +28°C° 0 mm 2 m/s 716 mmHg 61%
    03:00 +27°C° 0 mm 2 m/s 716 mmHg 67%
    04:00 +27°C° 0 mm 2 m/s 716 mmHg 71%
    05:00 +26°C° 0 mm 2 m/s 716 mmHg 75%
    06:00 +26°C° 0 mm 2 m/s 717 mmHg 80%
    07:00 +27°C° 0 mm 2 m/s 717 mmHg 72%
    08:00 +29°C° 0 mm 3 m/s 718 mmHg 65%
    09:00 +31°C° 0 mm 3 m/s 718 mmHg 57%
    10:00 +35°C° 0 mm 3 m/s 718 mmHg 50%
    11:00 +37°C° 0 mm 2 m/s 717 mmHg 43%
    12:00 +39°C° 0 mm 2 m/s 717 mmHg 36%
    13:00 +37°C° 0 mm 1 m/s 716 mmHg 36%
    14:00 +36°C° 0 mm 1 m/s 716 mmHg 37%
    15:00 +34°C° 0 mm 0 m/s 715 mmHg 37%
    16:00 +33°C° 0 mm 0 m/s 715 mmHg 39%
    17:00 +32°C° 0 mm 0 m/s 716 mmHg 41%
    18:00 +31°C° 0 mm 0 m/s 716 mmHg 42%
    19:00 +32°C° 0 mm 1 m/s 716 mmHg 44%
    20:00 +31°C° 0 mm 1 m/s 717 mmHg 46%
    21:00 +31°C° 0 mm 1 m/s 717 mmHg 48%
    22:00 +30°C° 0 mm 1 m/s 717 mmHg 51%
    23:00 +29°C° 0 mm 1 m/s 717 mmHg 54%

    26 Octombrie, Joi

    Timp Temperatura Precipitaţii Vânt Presiune Umiditate
    00:00 +29°C° 0 mm 1 m/s 717 mmHg 58%
    01:00 +28°C° 0 mm 2 m/s 716 mmHg 61%
    02:00 +28°C° 0 mm 2 m/s 716 mmHg 64%
    03:00 +27°C° 0 mm 2 m/s 716 mmHg 67%
    04:00 +27°C° 0 mm 2 m/s 717 mmHg 71%
    05:00 +26°C° 0 mm 2 m/s 717 mmHg 76%
    06:00 +25°C° 0 mm 2 m/s 718 mmHg 80%
    07:00 +27°C° 0 mm 2 m/s 718 mmHg 73%
    08:00 +29°C° 0 mm 2 m/s 718 mmHg 66%
    09:00 +31°C° 0 mm 2 m/s 719 mmHg 59%
    10:00 +35°C° 0 mm 2 m/s 718 mmHg 50%
    11:00 +37°C° 0 mm 1 m/s 718 mmHg 41%
    12:00 +38°C° 0 mm 0 m/s 718 mmHg 32%
    13:00 +37°C° 0 mm 0 m/s 717 mmHg 33%
    14:00 +37°C° 0 mm 1 m/s 716 mmHg 34%
    15:00 +35°C° 0 mm 1 m/s 715 mmHg 35%
    16:00 +34°C° 0 mm 1 m/s 716 mmHg 37%
    17:00 +31°C° 0 mm 0 m/s 716 mmHg 38%
    18:00 +30°C° 0 mm 0 m/s 716 mmHg 40%
    19:00 +29°C° 0 mm 0 m/s 716 mmHg 42%
    20:00 +29°C° 0 mm 0 m/s 716 mmHg 44%
    21:00 +28°C° 0 mm 0 m/s 717 mmHg 46%
    22:00 +29°C° 0 mm 1 m/s 716 mmHg 49%
    23:00 +29°C° 0 mm 1 m/s 716 mmHg 51%
    Arată mai mult